Location: Prairie State College
(41.5244°N, 87.6382°W)
Time: 13:28:37
(UTC-06:00)

Amateur Radio Satellites - All Passes

Search period start: 24 February 2017 12:58
Search period end: 25 February 2017 12:58
Location: Prairie State College, 41.5244°N, 87.6382°W

Satellite Date Start Highest point End Downlink Frequencies (MHz)
Time Altitude Azimuth
Oscar 19 24 Feb 12:59:05 13:04:03 48° 260° (W) 13:09:02 437.125/150
50 SAT 24 Feb 13:02:06 13:05:02 26° 290° (WNW) 13:07:58 437.505
DX 1 24 Feb 13:07:21 13:11:36 53° 287° (WNW) 13:15:50 434.975-435.025
Tancredo 1 24 Feb 13:09:43 13:12:29 25° 22° (NNE) 13:15:14 437.200
VELOX 1 24 Feb 13:12:52 13:16:16 22° 294° (WNW) 13:19:41 145.980
AO-85 24 Feb 13:21:34 13:25:27 64° 239° (WSW) 13:29:23 145.980
UKube-1 24 Feb 13:21:42 13:25:54 51° 288° (WNW) 13:30:04 .
SPROUT 24 Feb 13:29:34 13:32:24 17° 295° (WNW) 13:35:14 437.525
ITAMSAT 1 24 Feb 13:30:37 13:35:19 35° 68° (ENE) 13:40:02 435.822/435.867
BEESAT 3 24 Feb 13:32:20 13:34:16 13° 40° (NE) 13:36:12 437.485
Gurwin Techsat 1B 24 Feb 13:35:26 13:40:25 41° 262° (W) 13:45:27 435.225
BEESAT 2 24 Feb 14:08:10 14:10:10 13° 40° (NE) 14:12:09 435.950
ISS 24 Feb 14:17:26 14:20:44 79° 37° (NE) 14:24:00 437.550
ITUPSAT 1 24 Feb 14:35:20 14:40:07 61° 101° (E) 14:44:50 437.325
BEESAT 24 Feb 14:42:37 14:47:26 75° 104° (ESE) 14:52:11 436.000
AO-7 24 Feb 14:44:49 14:53:11 74° 254° (WSW) 15:01:34 .
Tancredo 1 24 Feb 14:45:47 14:48:56 51° 221° (SW) 14:52:02 437.200
BEESAT 3 24 Feb 15:08:23 15:12:25 82° 241° (WSW) 15:16:25 437.485
ITAMSAT 1 24 Feb 15:10:20 15:14:47 29° 264° (W) 15:19:18 435.822/435.867
MOZHAYETS 4 24 Feb 15:12:29 15:17:02 56° 100° (E) 15:21:32
PCSat 24 Feb 15:26:04 15:30:54 34° 110° (ESE) 15:35:45 145.827
RS-15 24 Feb 15:28:45 15:37:16 24° 99° (E) 15:45:57 29.354- 29.394
BEESAT 2 24 Feb 15:44:25 15:48:30 83° 237° (WSW) 15:52:31 435.950
KKS-1 24 Feb 15:50:43 15:54:49 35° 98° (E) 15:58:55 437.445
ISS 24 Feb 15:55:28 15:56:45 12° 231° (SW) 15:58:01 437.550
XW-2D 24 Feb 15:55:36 15:55:59 10° 63° (ENE) 15:56:22 145.860 - 145.880
XW-2B 24 Feb 15:59:47 16:00:58 11° 64° (ENE) 16:02:09 145.730 - 145.750
XW-2C 24 Feb 16:07:25 16:09:29 14° 65° (ENE) 16:11:32 145.795 - 145.815
CUBESAT XI-V 24 Feb 16:09:24 16:13:37 35° 97° (E) 16:17:48 437.345
CUTE-I 24 Feb 16:11:43 16:15:47 23° 63° (ENE) 16:19:53 437.470
ITUPSAT 1 24 Feb 16:14:35 16:17:25 16° 298° (WNW) 16:20:15 437.325
LilacSat-2 24 Feb 16:22:11 16:25:10 21° 68° (ENE) 16:28:10 437.200
NUDT-PHONESAT 24 Feb 16:22:17 16:24:42 17° 67° (ENE) 16:27:08 437.300
BEESAT 24 Feb 16:22:21 16:24:33 13° 300° (WNW) 16:26:47 436.000
NO-84 24 Feb 16:23:25 16:26:11 28° 129° (SE) 16:29:10 435.350 FM
STARS 24 Feb 16:27:23 16:31:33 39° 99° (E) 16:35:41 437.465
HO-68 24 Feb 16:30:07 16:33:05 13° 50° (NE) 16:36:03 435.675
AO-7 24 Feb 16:43:33 16:47:15 13° 272° (W) 16:50:57 .
MOZHAYETS 4 24 Feb 16:51:00 16:53:43 16° 297° (WNW) 16:56:26
PCSat 24 Feb 17:09:16 17:14:14 36° 308° (NW) 17:19:14 145.827
DOVE 4 24 Feb 17:09:59 17:14:07 83° 76° (ENE) 17:18:17 437.250
M-CUBED/EXP-1 PRIME 24 Feb 17:13:03 17:16:46 55° 107° (ESE) 17:20:45 437.505
KAITUO 1B 24 Feb 17:18:27 17:22:15 81° 76° (ENE) 17:26:05 145.475/437.950
XW-2F 24 Feb 17:21:41 17:25:31 77° 259° (W) 17:29:23 145.980 - 146.000
XW-2D 24 Feb 17:25:48 17:29:37 64° 259° (W) 17:33:29 145.860 - 145.880
KKS-1 24 Feb 17:27:41 17:31:10 23° 294° (WNW) 17:34:39 437.445
XW-2B 24 Feb 17:30:52 17:34:39 57° 260° (W) 17:38:29 145.730 - 145.750
SEEDS 24 Feb 17:31:48 17:32:32 10° 62° (ENE) 17:33:16 437.485
RS-15 24 Feb 17:36:01 17:47:58 88° 122° (ESE) 18:00:25 29.354- 29.394
XW-2C 24 Feb 17:39:37 17:43:18 43° 261° (W) 17:47:01 145.795 - 145.815
CUBESAT XI-V 24 Feb 17:47:10 17:50:47 23° 293° (WNW) 17:54:24 437.345
XW-2A 24 Feb 17:48:26 17:51:26 30° 71° (ENE) 17:54:28 145.665 - 145.685
CUTE-I 24 Feb 17:50:20 17:55:29 49° 260° (W) 18:00:41 437.470
STRAND 1 24 Feb 17:52:24 17:53:49 11° 88° (E) 17:55:14 437.568
NUDT-PHONESAT 24 Feb 17:54:55 17:58:22 34° 263° (W) 18:01:51 437.300
LilacSat-2 24 Feb 17:55:58 17:59:18 27° 264° (W) 18:02:40 437.200
NO-84 24 Feb 18:00:43 18:03:46 31° 329° (NNW) 18:07:04 435.350 FM
STARS 24 Feb 18:04:21 18:07:37 20° 295° (WNW) 18:10:53 437.465
CUTE 1.7 + AOD 2 24 Feb 18:04:51 18:08:45 35° 71° (ENE) 18:12:41 437.475
HO-68 24 Feb 18:12:23 18:19:27 64° 69° (ENE) 18:26:32 435.675
CUBEBUG 2 24 Feb 18:14:49 18:18:14 22° 66° (ENE) 18:21:45 437.445
AO-73 24 Feb 18:31:50 18:33:30 12° 61° (ENE) 18:35:10 145.935
Oscar 11 24 Feb 18:39:37 18:41:18 12° 62° (ENE) 18:42:59 .
M-CUBED/EXP-1 PRIME 24 Feb 18:49:13 18:50:53 13° 300° (WNW) 18:52:36 437.505
UWE-3 24 Feb 18:53:15 18:57:17 34° 70° (ENE) 19:01:26 435.000/436.395/437.385
AAUSAT CUBESAT 2 24 Feb 18:55:25 18:59:20 42° 72° (ENE) 19:03:16 437.432
SEEDS 24 Feb 19:03:22 19:07:37 76° 260° (W) 19:11:51 437.485
ZACube-1 24 Feb 19:16:07 19:20:10 36° 70° (ENE) 19:24:21 437.345
XW-2A 24 Feb 19:22:23 19:24:17 14° 267° (W) 19:26:12 145.665 - 145.685
STRAND 1 24 Feb 19:28:26 19:33:38 85° 286° (WNW) 19:38:46 437.568
NO-84 24 Feb 19:40:55 19:42:28 12° 350° (N) 19:44:05 435.350 FM
CUTE 1.7 + AOD 2 24 Feb 19:41:33 19:44:41 20° 267° (W) 19:47:50 437.475
CUBEBUG 2 24 Feb 19:50:32 19:54:36 36° 263° (W) 19:58:49 437.445
RS-15 24 Feb 19:51:22 20:02:13 36° 328° (NNW) 20:13:19 29.354- 29.394
HO-68 24 Feb 20:02:03 20:07:38 24° 267° (W) 20:13:15 435.675
AO-73 24 Feb 20:04:37 20:09:03 75° 258° (WSW) 20:13:37 145.935
Oscar 11 24 Feb 20:12:31 20:16:51 69° 259° (W) 20:21:12 .
UWE-3 24 Feb 20:30:19 20:33:48 22° 267° (W) 20:37:23 435.000/436.395/437.385
AAUSAT CUBESAT 2 24 Feb 20:32:25 20:34:59 16° 268° (W) 20:37:33 437.432
DELFI C3 24 Feb 20:34:49 20:38:45 66° 75° (ENE) 20:42:41 145.870
YUBILEINY 24 Feb 20:41:24 20:49:47 48° 75° (ENE) 20:58:04 435.215
UNISAT 6 24 Feb 20:52:28 20:55:16 16° 91° (E) 20:58:02 437.425
ZACube-1 24 Feb 20:53:08 20:56:33 21° 267° (W) 21:00:02 437.345
TIGRISAT 24 Feb 20:53:10 20:55:46 15° 90° (E) 20:58:20 435.000
PRISM 24 Feb 20:54:46 20:58:30 34° 98° (E) 21:02:13 437.425
STRAND 1 24 Feb 21:10:19 21:11:58 11° 302° (WNW) 21:13:37 437.568
NO-84 24 Feb 21:19:43 21:21:36 13° 12° (NNE) 21:23:32 435.350 FM
LO-87 24 Feb 21:31:22 21:34:35 33° 72° (ENE) 21:37:48 145.935 - 145.965
SO-50 24 Feb 21:52:45 21:57:20 55° 119° (ESE) 22:01:52 436.795
FO-29 24 Feb 21:53:03 22:00:04 38° 94° (E) 22:06:26 435.910
ESTCUBE 1 24 Feb 22:04:40 22:08:59 47° 72° (ENE) 22:13:20 437.505/2401.250
RS-15 24 Feb 22:10:36 22:19:55 23° 2° (N) 22:29:12 29.354- 29.394
QB50P2 24 Feb 22:21:39 22:23:09 12° 90° (E) 22:24:39 145.880/145.840
UNISAT 6 24 Feb 22:27:41 22:32:18 54° 287° (WNW) 22:36:50 437.425
TIGRISAT 24 Feb 22:28:10 22:32:49 58° 287° (WNW) 22:37:22 435.000
DX 1 24 Feb 22:29:06 22:31:11 13° 62° (ENE) 22:33:15 434.975-435.025
PRISM 24 Feb 22:30:37 22:33:33 19° 294° (WNW) 22:36:29 437.425
VELOX 1 24 Feb 22:33:20 22:37:12 31° 69° (ENE) 22:41:05 145.980
AIST 2D 24 Feb 22:34:20 22:37:12 22° 95° (E) 22:40:04 435.315
YUBILEINY 24 Feb 22:38:35 22:46:20 38° 275° (W) 22:54:04 435.215
O/OREOS (USA 219) 24 Feb 22:38:58 22:43:26 89° 113° (ESE) 22:47:58 437.305
UKube-1 24 Feb 22:42:31 22:44:34 13° 62° (ENE) 22:46:36 .
SPROUT 24 Feb 22:46:08 22:49:57 33° 70° (ENE) 22:53:49 437.525
NO-84 24 Feb 22:56:35 23:00:17 33° 32° (NNE) 23:04:12 435.350 FM
LO-87 24 Feb 23:06:15 23:08:10 14° 268° (W) 23:10:04 145.935 - 145.965
DUCHIFAT 1 24 Feb 23:24:46 23:28:53 46° 99° (E) 23:32:58 145.980
SO-50 24 Feb 23:34:33 23:38:07 21° 317° (NW) 23:41:40 436.795
EO-79 24 Feb 23:34:44 23:39:02 73° 102° (ESE) 23:43:18 145.935-145.965
50 SAT 24 Feb 23:35:25 23:38:54 70° 258° (WSW) 23:42:24 437.505
FO-29 24 Feb 23:37:53 23:45:06 45° 294° (WNW) 23:51:43 435.910
ESTCUBE 1 24 Feb 23:43:09 23:46:02 17° 268° (W) 23:48:55 437.505/2401.250
POLYITAN 1 24 Feb 23:52:05 23:56:24 72° 285° (WNW) 00:00:39 437.675
NANOSAT C BR1 24 Feb 23:52:07 23:56:25 78° 285° (WNW) 00:00:40 145.865
QB50P2 24 Feb 23:55:04 23:59:19 61° 286° (WNW) 00:03:33 145.880/145.840
DX 1 25 Feb 00:02:35 00:06:50 61° 258° (WSW) 00:11:08 434.975-435.025
AIST 2D 25 Feb 00:07:35 00:10:20 21° 291° (WNW) 00:13:03 435.315
VELOX 1 25 Feb 00:10:10 00:13:40 23° 265° (W) 00:17:12 145.980
PCSat 25 Feb 00:13:24 00:18:12 31° 50° (NE) 00:22:59 145.827
BEESAT 25 Feb 00:15:43 00:16:37 10° 58° (ENE) 00:17:31 436.000
UKube-1 25 Feb 00:15:50 00:20:04 60° 258° (WSW) 00:24:21 .
O/OREOS (USA 219) 25 Feb 00:22:14 00:23:33 11° 311° (NW) 00:24:51 437.305
SPROUT 25 Feb 00:22:44 00:25:56 21° 266° (W) 00:29:10 437.525
BUGSAT 1 25 Feb 00:24:05 00:28:20 75° 103° (ESE) 00:32:35 437.445
RS-15 25 Feb 00:25:53 00:37:18 40° 36° (NE) 00:48:19 29.354- 29.394
NO-84 25 Feb 00:34:06 00:38:06 44° 228° (SW) 00:42:18 435.350 FM
DUCHIFAT 1 25 Feb 01:01:30 01:04:10 16° 296° (WNW) 01:06:51 145.980
Oscar 19 25 Feb 01:10:11 01:15:16 58° 101° (E) 01:20:18 437.125/150
EO-79 25 Feb 01:12:55 01:14:10 11° 299° (WNW) 01:15:27 145.935-145.965
ITUPSAT 1 25 Feb 01:41:53 01:46:41 73° 74° (ENE) 01:51:30 437.325
ITAMSAT 1 25 Feb 01:45:23 01:47:10 12° 89° (E) 01:48:56 435.822/435.867
BEESAT 25 Feb 01:48:49 01:53:36 86° 78° (ENE) 01:58:26 436.000
Gurwin Techsat 1B 25 Feb 01:50:59 01:56:20 78° 103° (ESE) 02:01:39 435.225
PCSat 25 Feb 01:56:37 02:01:42 41° 248° (WSW) 02:06:45 145.827
BUGSAT 1 25 Feb 02:02:02 02:03:05 11° 299° (WNW) 02:04:07 437.445
MOZHAYETS 4 25 Feb 02:14:05 02:18:36 54° 73° (ENE) 02:23:09
RS-15 25 Feb 02:38:45 02:51:03 77° 242° (WSW) 03:02:47 29.354- 29.394
AO-7 25 Feb 02:46:37 02:54:13 38° 98° (E) 03:01:43 .
KKS-1 25 Feb 02:48:49 02:52:47 33° 69° (ENE) 02:56:45 437.445
Oscar 19 25 Feb 02:50:41 02:54:06 18° 298° (WNW) 02:57:31 437.125/150
CUBESAT XI-V 25 Feb 03:12:37 03:16:51 35° 70° (ENE) 03:21:04 437.345
ITAMSAT 1 25 Feb 03:21:59 03:27:15 83° 285° (WNW) 03:32:28 435.822/435.867
ITUPSAT 1 25 Feb 03:23:11 03:25:00 12° 270° (W) 03:26:50 437.325
STARS 25 Feb 03:24:01 03:27:58 35° 70° (ENE) 03:31:57 437.465
Gurwin Techsat 1B 25 Feb 03:32:42 03:35:37 15° 300° (WNW) 03:38:30 435.225
AO-85 25 Feb 03:35:43 03:39:58 38° 116° (ESE) 03:43:57 145.980
MOZHAYETS 4 25 Feb 03:53:23 03:56:05 15° 269° (W) 03:58:48
M-CUBED/EXP-1 PRIME 25 Feb 03:59:54 04:03:09 70° 71° (ENE) 04:06:24 437.505
KKS-1 25 Feb 04:25:53 04:29:22 23° 265° (W) 04:32:53 437.445
AO-7 25 Feb 04:39:12 04:47:07 50° 297° (WNW) 04:54:59 .
CUBESAT XI-V 25 Feb 04:50:34 04:54:17 23° 266° (W) 04:57:59 437.345
RS-15 25 Feb 04:54:04 05:01:19 18° 264° (W) 05:08:24 29.354- 29.394
XW-2F 25 Feb 04:56:18 04:57:10 11° 90° (E) 04:58:03 145.980 - 146.000
XW-2D 25 Feb 04:59:53 05:01:41 13° 91° (E) 05:03:29 145.860 - 145.880
BEESAT 3 25 Feb 04:59:55 05:02:11 15° 110° (ESE) 05:04:27 437.485
STARS 25 Feb 05:01:05 05:04:23 21° 266° (W) 05:07:44 437.465
ITAMSAT 1 25 Feb 05:04:08 05:05:52 12° 303° (WNW) 05:07:36 435.822/435.867
XW-2B 25 Feb 05:04:38 05:06:46 14° 92° (E) 05:08:52 145.730 - 145.750
STRAND 1 25 Feb 05:07:23 05:10:49 18° 62° (ENE) 05:14:15 437.568
DOVE 4 25 Feb 05:08:09 05:11:56 23° 95° (E) 05:15:52 437.250
XW-2C 25 Feb 05:12:47 05:15:29 18° 93° (E) 05:18:10 145.795 - 145.815
AO-85 25 Feb 05:16:44 05:20:26 25° 312° (NW) 05:23:57 145.980
NUDT-PHONESAT 25 Feb 05:25:41 05:28:35 21° 94° (E) 05:31:27 437.300
LilacSat-2 25 Feb 05:28:44 05:32:08 29° 96° (E) 05:35:30 437.200
BEESAT 2 25 Feb 05:37:19 05:39:42 16° 110° (ESE) 05:42:08 435.950
CUTE-I 25 Feb 06:06:55 06:12:17 66° 102° (ESE) 06:17:37 437.470
KAITUO 1B 25 Feb 06:23:35 06:27:21 71° 284° (WNW) 06:31:04 145.475/437.950
SO-50 25 Feb 06:23:58 06:28:22 50° 53° (NE) 06:32:43 436.795
XW-2F 25 Feb 06:27:55 06:31:38 51° 286° (WNW) 06:35:19 145.980 - 146.000
XW-2D 25 Feb 06:32:28 06:36:07 42° 287° (WNW) 06:39:43 145.860 - 145.880
AO-7 25 Feb 06:35:20 06:37:54 12° 318° (NW) 06:40:28 .
BEESAT 3 25 Feb 06:35:36 06:39:22 47° 307° (NW) 06:43:14 437.485
XW-2B 25 Feb 06:37:34 06:41:08 38° 288° (WNW) 06:44:41 145.730 - 145.750
XW-2A 25 Feb 06:42:41 06:45:49 31° 97° (E) 06:48:56 145.665 - 145.685
STRAND 1 25 Feb 06:44:27 06:49:30 59° 259° (W) 06:54:37 437.568
DOVE 4 25 Feb 06:45:20 06:49:40 38° 289° (WNW) 06:54:15 437.250
XW-2C 25 Feb 06:46:21 06:49:44 30° 289° (WNW) 06:53:05 145.795 - 145.815
SEEDS 25 Feb 06:48:02 06:50:49 17° 92° (E) 06:53:35 437.485
ISS 25 Feb 06:57:42 07:00:16 21° 134° (SE) 07:02:52 437.550
NUDT-PHONESAT 25 Feb 06:59:20 07:02:29 26° 290° (WNW) 07:05:37 437.300
LilacSat-2 25 Feb 07:03:25 07:06:13 19° 292° (WNW) 07:09:00 437.200
O/OREOS (USA 219) 25 Feb 07:10:20 07:13:40 20° 55° (NE) 07:17:00 437.305
BEESAT 2 25 Feb 07:13:17 07:17:06 45° 307° (NW) 07:20:58 435.950
Tancredo 1 25 Feb 07:23:24 07:26:28 40° 138° (SE) 07:29:33 437.200
CUTE 1.7 + AOD 2 25 Feb 07:24:47 07:29:01 70° 101° (ESE) 07:33:12 437.475
HO-68 25 Feb 07:27:19 07:34:28 67° 103° (ESE) 07:41:33 435.675
CUBEBUG 2 25 Feb 07:40:35 07:45:13 48° 99° (E) 07:49:46 437.445
PRISM 25 Feb 07:44:20 07:47:42 25° 68° (ENE) 07:51:04 437.425
CUTE-I 25 Feb 07:48:17 07:51:46 18° 299° (WNW) 07:55:14 437.470
UNISAT 6 25 Feb 07:51:58 07:54:23 14° 62° (ENE) 07:56:52 437.425
TIGRISAT 25 Feb 07:52:34 07:54:47 14° 62° (ENE) 07:57:02 435.000
AO-73 25 Feb 07:53:11 07:56:41 22° 93° (E) 08:00:08 145.935
Oscar 11 25 Feb 08:00:14 08:03:33 21° 94° (E) 08:06:50 .
SO-50 25 Feb 08:05:24 08:08:26 18° 249° (WSW) 08:11:26 436.795
FO-29 25 Feb 08:05:56 08:10:56 20° 55° (NE) 08:16:09 435.910
AAUSAT CUBESAT 2 25 Feb 08:12:22 08:16:29 79° 103° (ESE) 08:20:35 437.432
XW-2A 25 Feb 08:16:18 08:18:19 15° 293° (WNW) 08:20:20 145.665 - 145.685
UWE-3 25 Feb 08:18:25 08:23:07 75° 102° (ESE) 08:27:42 435.000/436.395/437.385
SEEDS 25 Feb 08:22:46 08:26:39 38° 288° (WNW) 08:30:29 437.485
ISS 25 Feb 08:33:21 08:36:33 46° 330° (NNW) 08:39:45 437.550
ZACube-1 25 Feb 08:39:56 08:44:31 76° 101° (ESE) 08:48:59 437.345
O/OREOS (USA 219) 25 Feb 08:48:56 08:53:18 46° 253° (WSW) 08:57:42 437.305
Tancredo 1 25 Feb 08:59:54 09:02:49 29° 336° (NNW) 09:05:43 437.200
CUTE 1.7 + AOD 2 25 Feb 09:03:06 09:04:15 11° 298° (WNW) 09:05:25 437.475
HO-68 25 Feb 09:16:01 09:21:36 26° 302° (WNW) 09:27:11 435.675
CUBEBUG 2 25 Feb 09:18:05 09:21:26 19° 295° (WNW) 09:24:46 437.445
PRISM 25 Feb 09:19:31 09:22:55 25° 264° (W) 09:26:19 437.425
UNISAT 6 25 Feb 09:26:06 09:30:32 62° 259° (W) 09:35:07 437.425
TIGRISAT 25 Feb 09:26:25 09:30:52 66° 259° (W) 09:35:28 435.000
AO-73 25 Feb 09:28:51 09:33:00 36° 290° (WNW) 09:37:05 145.935
Oscar 11 25 Feb 09:35:50 09:39:44 33° 290° (WNW) 09:43:36 .
YUBILEINY 25 Feb 09:42:05 09:50:34 55° 90° (E) 09:59:02 435.215
DELFI C3 25 Feb 09:46:23 09:50:19 74° 283° (WNW) 09:54:12 145.870
FO-29 25 Feb 09:47:41 09:54:47 89° 78° (ENE) 10:02:37 435.910
UWE-3 25 Feb 09:56:56 09:58:54 13° 299° (WNW) 10:00:51 435.000/436.395/437.385
ISS 25 Feb 10:11:27 10:13:38 16° 349° (N) 10:15:48 437.550
DUCHIFAT 1 25 Feb 10:16:34 10:20:21 34° 70° (ENE) 10:24:10 145.980
ZACube-1 25 Feb 10:18:26 10:20:07 12° 299° (WNW) 10:21:48 437.345
EO-79 25 Feb 10:26:54 10:31:00 53° 73° (ENE) 10:35:09 145.935-145.965
LO-87 25 Feb 10:31:15 10:34:42 41° 99° (E) 10:38:07 145.935 - 145.965
Tancredo 1 25 Feb 10:38:01 10:39:53 14° 355° (N) 10:41:43 437.200
AIST 2D 25 Feb 10:41:06 10:44:35 57° 260° (W) 10:48:07 435.315
NANOSAT C BR1 25 Feb 10:43:50 10:48:01 77° 76° (ENE) 10:52:16 145.865
POLYITAN 1 25 Feb 10:44:15 10:48:29 85° 78° (ENE) 10:52:47 437.675
QB50P2 25 Feb 10:47:14 10:51:28 83° 257° (WSW) 10:55:45 145.880/145.840
Oscar 19 25 Feb 10:52:00 10:53:41 12° 58° (ENE) 10:55:23 437.125/150
BUGSAT 1 25 Feb 11:13:40 11:17:34 49° 73° (ENE) 11:21:33 437.445
ESTCUBE 1 25 Feb 11:33:20 11:37:50 80° 283° (WNW) 11:42:18 437.505/2401.250
Gurwin Techsat 1B 25 Feb 11:34:50 11:38:10 17° 61° (ENE) 11:41:30 435.225
FO-29 25 Feb 11:36:18 11:40:49 17° 275° (W) 11:45:36 435.910
YUBILEINY 25 Feb 11:39:56 11:47:42 34° 290° (WNW) 11:55:31 435.215
ISS 25 Feb 11:48:56 11:51:04 16° 10° (N) 11:53:12 437.550
DX 1 25 Feb 11:51:03 11:54:27 22° 95° (E) 11:57:50 434.975-435.025
DUCHIFAT 1 25 Feb 11:52:58 11:56:05 20° 266° (W) 11:59:15 145.980
VELOX 1 25 Feb 11:58:45 12:03:08 62° 101° (E) 12:07:31 145.980
AO-7 25 Feb 11:59:26 12:02:34 13° 43° (NE) 12:05:41 .
UKube-1 25 Feb 12:03:14 12:06:33 21° 95° (E) 12:09:50 .
EO-79 25 Feb 12:05:05 12:07:05 13° 269° (W) 12:09:06 145.935-145.965
LO-87 25 Feb 12:06:09 12:07:47 13° 294° (WNW) 12:09:25 145.935 - 145.965
AO-85 25 Feb 12:06:49 12:10:19 30° 49° (NE) 12:13:50 145.980
SPROUT 25 Feb 12:06:52 12:11:10 64° 102° (ESE) 12:15:26 437.525
Tancredo 1 25 Feb 12:14:43 12:17:06 19° 16° (NNE) 12:19:29 437.200
Oscar 19 25 Feb 12:27:03 12:32:12 86° 73° (ENE) 12:37:22 437.125/150
50 SAT 25 Feb 12:33:03 12:36:29 63° 285° (WNW) 12:39:55 437.505
BUGSAT 1 25 Feb 12:51:22 12:53:14 13° 269° (W) 12:55:08 437.445
